SBIRS GEO-4 (USA 273)

Last updated on Thu Nov 21 2024 00:02:43 GMT+0000 (Coordinated Universal Time)

1 41937U 17004A 24325.21192280 -.00000143 00000+0 00000+0 0 9994 2 41937 1.4521 12.2773 0002596 232.6774 154.2653 1.00271398 28854
UTC large
Height (km)
Speed (km/s)
/
Latitude / Longitude
Inclination (degrees)
Orbital Period (minutes)
Azimuth
Elevation
Range (km)
Doppler Factor

Next 0 passes for location: London (51.5072 / 0.1276)

Sorry there are no passes over London.